Location: Arrodets-la-Barthe
(43.0306°N, 0.2829°E)
Time: 14:03:26
(UTC+00:00)

SL-8 R/B - Pass Details

Date: 24 October 2021
Orbit: 656 x 667 km, 48.4° (Epoch: 07 December)

Event Time Altitude Azimuth Distance (km) Brightness Sun altitude
Rises 17:44:42 0° 264° (W) 2,978 9.6 -8.5°
Reaches altitude 10° 17:47:06 10° 269° (W) 2,069 7.9 -8.9°
Maximum altitude 17:51:46 52° 346° (NNW) 818 4.2 -9.7°
Enters shadow 17:56:03 12° 62° (ENE) 1,929 5.5 -10.5°
